Home   Weather   Winnipeg   Past weeks

Flag for Canada Past Weather in Winnipeg, Manitoba, Canada — Yesterday and Last 2 Weeks

Now
58 °F

Refreshingly cool.


Feels Like: 59 °F
Forecast: 39 / 64 °F
Wind: 3 mph from Southwest

Location: Winnipeg The Forks Man

Current Time: Apr 30, 2017 at 12:02:34 pm

Latest Report: Apr 30, 2017 at 11:00 am


Visibility: N/A

Pressure: 30.08 "Hg

Humidity: 27%

Dew Point: 25 °F

Location of WinnipegLocation

Past Weather in Winnipeg — Graph

°F

Winnipeg Temperature Yesterday

Maximum temperature yesterday: 63 °F (at 4:00 pm)
Minimum temperature yesterday: 31 °F (at 6:00 am)
Average temperature yesterday: 48 °F

High & Low Weather Summary for the Past Weeks

 TemperatureHumidityPressure
High63 °F (Apr 21, 6:00 pm)100% (Apr 22, 9:00 am)30.35 "Hg (Apr 22, 9:00 am)
Low24 °F (Apr 17, 7:00 am)14% (Apr 29, 3:00 pm)29.73 "Hg (Apr 27, 4:00 pm)
Average40 °F60%30.06 "Hg
* Reported Apr 15 10:00 am — Apr 30 10:00 am, Winnipeg, Weather by CustomWeather, © 2017

Note: Actual official high and low records may vary slightly from our data, if they occured in-between our weather recording intervals... More about our weather records

Advertising

Winnipeg Weather History for the Previous 24 Hours

Scroll right to see more
 ConditionsComfort  
Time TempWeatherWind HumidityBarometerVisibility
10:00 am
Sun, Apr 30
54 °FCool.3 mph31%30.09 "HgN/A
9:00 am51 °FCool.2 mph39%30.11 "HgN/A
8:00 am44 °FQuite cool.No wind51%30.13 "HgN/A
7:00 am42 °FQuite cool.1 mph53%30.15 "HgN/A
6:00 am41 °FQuite cool.1 mph54%30.14 "HgN/A
5:00 am42 °FQuite cool.1 mph52%30.15 "HgN/A
4:00 am44 °FQuite cool.2 mph47%30.15 "HgN/A
3:00 am45 °FCool.2 mph41%30.17 "HgN/A
2:00 am47 °FCool.2 mph37%30.18 "HgN/A
1:00 am48 °FCool.2 mph34%30.18 "HgN/A
12:00 am49 °FCool.3 mph33%30.19 "HgN/A
11:00 pm
Sat, Apr 29
50 °FCool.2 mph32%30.18 "HgN/A
10:00 pm52 °FCool.2 mph31%30.18 "HgN/A
9:00 pm55 °FRefreshingly cool.2 mph26%30.19 "HgN/A
8:00 pm56 °FRefreshingly cool.2 mph23%30.19 "HgN/A
7:00 pm60 °FRefreshingly cool.2 mph18%30.21 "HgN/A
6:00 pm61 °FRefreshingly cool.3 mph16%30.24 "HgN/A
5:00 pm62 °FRefreshingly cool.3 mph15%30.26 "HgN/A
4:00 pm63 °FMild.3 mph17%30.27 "HgN/A
3:00 pm60 °FRefreshingly cool.6 mph14%30.27 "HgN/A
2:00 pm59 °FRefreshingly cool.3 mph15%30.30 "HgN/A
1:00 pm57 °FRefreshingly cool.2 mph17%30.32 "HgN/A
12:00 pm53 °FCool.3 mph19%30.33 "HgN/A
Weather by CustomWeather, © 2017

See weather overviewHow to use our weather pages